Regional Weather Roundup
Issued by NWS

Home | Current Version | Previous Version | Graphics & Text | Print | Product List | Glossary On
Versions: 1 2 3 4 5 6 7 8 9 10 11 12 13 14 15 16 17 18 19 20 21 22 23 24 25 26 27 28 29 30 31 32 33 34 35 36 37 38 39 40 41 42 43 44 45 46 47 48 49 50
000
ASUS43 KFSD 012210
RWRSD

WEATHER ROUNDUP FOR SOUTH DAKOTA
NATIONAL WEATHER SERVICE SIOUX FALLS SD
400 PM CST THU DEC 01 2016

NOTE: "FAIR" INDICATES FEW OR NO CLOUDS BELOW 12,000 FEET WITH NO
SIGNIFICANT WEATHER AND/OR OBSTRUCTIONS TO VISIBILITY.


SDZ001>005-009-010-012>017-012300-
NORTHWEST AND NORTH CENTRAL SOUTH DAKOTA

CITY           SKY/WX    TMP DP  RH WIND       PRES   REMARKS
BUFFALO          N/A     30  22  72 CALM      29.88R
FAITH            N/A     27  24  89 N7        29.96R WCI  19
MOBRIDGE       CLOUDY    32  26  78 NW7       29.96R WCI  26
$$

SDZ012>016-024>037-041>051-057-063-072>074-012300-
SOUTHWEST AND SOUTH CENTRAL SOUTH DAKOTA

CITY           SKY/WX    TMP DP  RH WIND       PRES   REMARKS
RAPID CTY ARPT MOCLDY    30  19  63 N5        29.94R WCI  25
PIERRE         CLOUDY    30  27  88 N6        29.98R WCI  24
CUSTER         CLOUDY    30  15  53 N8        29.85R WCI  22
ELLSWORTH AFB  PTCLDY    30  21  67 N5        29.93R WCI  26
PHILIP         CLOUDY    30  24  78 N5        29.98R WCI  25
PINE RIDGE     PTSUNNY   31  22  69 CALM      29.92R
SPEARFISH      FAIR      28  18  64 W6        29.92R WCI  22
WINNER         CLOUDY    31  25  78 NW9       29.99R WCI  23
$$

SDZ004>011-016>023-039-040-012300-
NORTHEAST SOUTH DAKOTA

CITY           SKY/WX    TMP DP  RH WIND       PRES   REMARKS
ABERDEEN       CLOUDY    33  28  81 N9        30.00R WCI  25
WATERTOWN      CLOUDY    31  28  89 NW9       29.95R WCI  23
BROOKINGS      CLOUDY    32  28  86 NW8       29.95R WCI  25
SISSETON         N/A     32  28  85 NW12      29.97R WCI  23
$$

SDZ017-020-022-023-036>040-048>070-012300-
SOUTHEAST SOUTH DAKOTA

CITY           SKY/WX    TMP DP  RH WIND       PRES   REMARKS
SIOUX FALLS    CLOUDY    34  30  85 NW12      29.96S WCI  25
HURON          CLOUDY    32  31  96 N7        29.99R WCI  26
CHAMBERLAIN    CLOUDY    32  30  92 W8        29.99R WCI  25
MITCHELL       CLOUDY    33  30  88 N8        30.00R WCI  26
YANKTON        CLOUDY    34  27  75 W9        29.99R WCI  26
$$

ABBREVIATIONS USED IN REMARKS
   TC - TEMPERATURE IN CELSIUS
  WCI - WIND CHILL INDEX
   HX - HEAT INDEX
  VSB - VISIBILITY





USA.gov is the U.S. government's official web portal to all federal, state and local government web resources and services.